Content
SEND FEEDBACK

Daily
Averages
Monthly
Summary
Turkey

ISTANBUL, TURKEY


Home > Middle East > Turkey
Elevation: 121 feet     Latitude: 40 58N     Longitude: 028 49E

WEATHER
 
SELECT A DAY
Number of Records: 292,521;   Date Range: 7/1/96 - 8/28/14
 
SHARE

PRINT THIS DATA

[ ← Previous Day ]
WEATHER ALMANAC - SEPTEMBER 21, 2013
[ Next Day → ]
[ °C ]   °F
Weather ElementAverageHighLow
Temperature66.4 °F73.4 °F (11:50 am)57.2 °F (4:50 am)
Dewpoint45.6 °F48.2 °F (7:50 am)41 °F (6:50 pm)
Humidity47.4 %63 % (3:20 am)30 % (3:00 pm)
Barometer30.04 in30.08 in (9:00 pm)30.01 in (12:50 am)
Wind Speed6.7 mph11.5 mph (6:50 pm)
Weather ElementAverage
Visibility6.2 mi
Wind DirectionS (181.6 °)

Weather ElementTotal
Precipitation---
Cooling Degree Days0.3 (Base 65)
Growing Degree Days15.3 (Base 50)
Averaged from 50 records on September 21, 2013
WEATHER CONDITIONS BREAKOUT
WIND DIRECTION BREAKOUT
WEATHER BY HOUR - SEPTEMBER 21, 2013
[ °C ]   °F
Local TimeTemperatureDewpointHumidityBarometerVisibilityWind DirectionWind SpeedGust SpeedPrecipitationEventsConditions
12:50 AM66.2 °F46.4 °F49 %30.01 inNE (50°)6.9 mphClear
1:20 AM68.0 °F46.4 °F46 %30.01 inVariable5.8 mphClear
1:50 AM64.4 °F46.4 °F52 %30.01 inNE (40°)4.6 mphClear
2:20 AM60.8 °F46.4 °F59 %30.04 inNorth (360°)3.5 mphClear
2:50 AM60.8 °F46.4 °F59 %30.01 inNorth (350°)5.8 mphClear
3:00 AM60.0 °F47.0 °F51 %30.03 in6.0 miNorth (350°)5.8 mphPartly Cloudy
3:20 AM59.0 °F46.4 °F63 %30.01 inNorth (350°)6.9 mphClear
3:50 AM59.0 °F46.4 °F63 %30.04 inNNW (340°)6.9 mphClear
4:20 AM59.0 °F44.6 °F59 %30.04 inNorth (350°)4.6 mphClear
4:50 AM57.2 °F44.6 °F63 %30.04 inNorth (360°)6.9 mphClear
5:20 AM59.0 °F46.4 °F63 %30.01 inNNW (340°)6.9 mphClear
5:50 AM57.2 °F44.6 °F63 %30.04 inNorth (350°)6.9 mphClear
6:20 AM57.2 °F44.6 °F63 %30.04 inNNW (340°)6.9 mphClear
6:50 AM59.0 °F46.4 °F63 %30.04 in6.2 miNNW (340°)8.1 mphPartly Cloudy
7:20 AM59.0 °F46.4 °F63 %30.04 in6.2 miNNW (340°)9.2 mphPartly Cloudy
7:50 AM60.8 °F48.2 °F63 %30.04 in6.2 miNorth (350°)6.9 mphPartly Cloudy
8:20 AM64.4 °F48.2 °F56 %30.04 in6.2 miNNW (340°)8.1 mphPartly Cloudy
8:50 AM66.2 °F48.2 °F52 %30.04 in6.2 miNW (320°)9.2 mphScattered Clouds
9:20 AM68.0 °F48.2 °F49 %30.04 in6.2 miNNW (330°)8.1 mphScattered Clouds
9:50 AM68.0 °F46.4 °F46 %30.04 in6.2 miWNW (300°)8.1 mphScattered Clouds
10:20 AM68.0 °F48.2 °F49 %30.06 in6.2 miNNW (330°)6.9 mphScattered Clouds
10:50 AM69.8 °F48.2 °F46 %30.06 in6.2 miNorth (10°)8.1 mphScattered Clouds
11:20 AM68.0 °F48.2 °F49 %30.04 in6.2 miNNW (340°)6.9 mphScattered Clouds
11:50 AM73.4 °F48.2 °F41 %30.04 in6.2 miNorth (360°)6.9 mphScattered Clouds
12:20 PM71.6 °F42.8 °F35 %30.04 in6.2 miVariable9.2 mphScattered Clouds
12:50 PM71.6 °F44.6 °F38 %30.04 in6.2 miVariable5.8 mphScattered Clouds
1:20 PM73.4 °F42.8 °F33 %30.04 in6.2 miVariable8.1 mphScattered Clouds
1:50 PM71.6 °F42.8 °F35 %30.04 in6.2 miVariable5.8 mphScattered Clouds
2:20 PM69.8 °F48.2 °F46 %30.04 in6.2 miSSE (150°)3.5 mphScattered Clouds
2:50 PM69.8 °F46.4 °F43 %30.04 in6.2 miSSE (160°)6.9 mphScattered Clouds
3:00 PM71.0 °F47.0 °F30 %30.04 in6.0 miSSE (160°)6.9 mphPartly Cloudy
3:20 PM71.6 °F44.6 °F38 %30.04 in6.2 miSouth (190°)5.8 mphScattered Clouds
3:50 PM71.6 °F46.4 °F41 %30.04 in6.2 miSSW (200°)6.9 mphScattered Clouds
4:20 PM71.6 °F46.4 °F41 %30.04 in6.2 miSouth (190°)6.9 mphScattered Clouds
4:50 PM73.4 °F42.8 °F33 %30.04 in6.2 miSSW (200°)6.9 mphScattered Clouds
5:20 PM71.6 °F44.6 °F38 %30.04 in6.2 miWSW (240°)5.8 mphScattered Clouds
5:50 PM71.6 °F44.6 °F38 %30.04 in6.2 miWest (270°)4.6 mphScattered Clouds
6:20 PM69.8 °F42.8 °F38 %30.04 in6.2 miNorth (10°)10.4 mphPartly Cloudy
6:50 PM69.8 °F41.0 °F35 %30.04 inNorth (10°)11.5 mphClear
7:20 PM69.8 °F42.8 °F38 %30.04 inNNE (20°)9.2 mphClear
7:50 PM69.8 °F42.8 °F38 %30.04 inVariable5.8 mphClear
8:20 PM68.0 °F44.6 °F43 %30.06 inNE (40°)6.9 mphClear
8:50 PM66.2 °F44.6 °F46 %30.06 inNNE (30°)6.9 mphClear
9:00 PM67.0 °F44.0 °F32 %30.08 in6.0 miNNE (30°)6.9 mph
9:20 PM68.0 °F44.6 °F43 %30.06 inNNE (20°)8.1 mphClear
9:50 PM66.2 °F44.6 °F46 %30.06 inNE (40°)5.8 mphClear
10:20 PM66.2 °F44.6 °F46 %30.06 inNNE (20°)4.6 mphClear
10:50 PM66.2 °F46.4 °F49 %30.06 inENE (70°)3.5 mphClear
11:20 PM66.2 °F44.6 °F46 %30.06 inNE (40°)4.6 mphClear
11:50 PM66.2 °F46.4 °F49 %30.06 inNE (50°)3.5 mphClear
Hourly data recorded from LTBA, located miles away from Istanbul, Turkey







STORIES FROM OUR PARTNERS